Kaneohe MCBH, HI

10:51 AM HST on August 21, 2017 (GMT -1000)
Kaneohe Bay Marine Corps Air Facility

Weather History for PHNG - May, 2013

Change the Weather History Date:

Thursday, May 23, 2013

  Actual Average Record
Temperature  
Mean Temperature 78 °F -  
Max Temperature 84 °F 78 °F 87 °F (2014)
Min Temperature 71 °F 69 °F 70 °F (1997)
Cooling Degree Days 12    
Growing Degree Days 28 (Base 50)    
Moisture  
Dew Point 71 °F    
Average Humidity 81    
Maximum Humidity 94    
Minimum Humidity 67    
Precipitation  
Precipitation 0.00 in - - ()
Sea Level Pressure  
Sea Level Pressure 30.03 in    
Wind  
Wind Speed 3 mph (East)    
Max Wind Speed 9 mph    
Max Gust Speed -    
Visibility 9 miles    
Events      
Averages and records for this station are not official NWS values.
T = Trace of Precipitation, MM = Missing Value Source: NWS Daily Summary

Daily Weather History Graph

Daily Weather History Graph

Search for Another Location

Airport or City:

Trip Planner

Search our weather history database for the weather conditions in past years. The results will help you decide how hot, cold, wet, or windy it might be!

Date:

Astronomy

May. 23, 2013 Rise Set
Actual Time 5:49 AM HST 7:06 PM HST
Civil Twilight 5:25 AM HST 7:30 PM HST
Nautical Twilight 4:56 AM HST 7:59 PM HST
Astronomical Twilight 4:27 AM HST 8:29 PM HST
Moon 5:58 PM HST (5/23) 4:32 AM HST (5/23)
Length of Visible Light 14h 04m
Length of Day
13h 16m
Waxing Gibbous, 98% of the Moon is Illuminated
May 23
Waxing Gibbous
May 24
Full
May 31
Last Quarter
Jun 8
New
Jun 16
First Quarter

Hourly Weather History & Observations

Time (HST) Temp. Heat Index Dew Point Humidity Pressure Visibility Wind Dir Wind Speed Gust Speed Precip Events Conditions
12:57 AM 73.4 °F - 70.0 °F 89% 30.02 in 10.0 mi Calm Calm - N/A   Partly Cloudy
1:57 AM 73.4 °F - 71.1 °F 92% 30.01 in 10.0 mi Calm Calm - N/A   Partly Cloudy
2:57 AM - - - N/A% 30.00 in 10.0 mi Calm Calm - N/A   Clear
3:57 AM 71.6 °F - 69.1 °F 92% 30.00 in 10.0 mi Calm Calm - N/A   Clear
4:57 AM 71.6 °F - 69.1 °F 92% 30.00 in 10.0 mi Calm Calm - N/A   Partly Cloudy
5:57 AM 73.4 °F - 70.0 °F 89% 30.01 in 10.0 mi South 3.5 mph - N/A   Scattered Clouds
6:08 AM 73.4 °F - 71.6 °F 94% 30.02 in 6.2 mi SSW 3.5 mph - N/A   Mostly Cloudy
6:57 AM 73.4 °F - 70.0 °F 89% 30.03 in 10.0 mi Calm Calm - N/A   Partly Cloudy
7:57 AM 75.2 °F - 71.1 °F 87% 30.05 in 6.0 mi Calm Calm - N/A   Haze
8:11 AM 75.2 °F - 71.6 °F 89% 30.07 in 6.0 mi Calm Calm - N/A   Haze
8:57 AM 79.3 °F - 71.1 °F 76% 30.06 in 6.0 mi Calm Calm - N/A   Haze
9:57 AM 80.4 °F 84.4 °F 72.0 °F 75% 30.06 in 6.0 mi NE 8.1 mph - N/A   Haze
10:57 AM 80.4 °F 84.4 °F 72.0 °F 75% 30.05 in 6.0 mi NE 9.2 mph - N/A   Haze
11:57 AM 80.6 °F 85.2 °F 73.0 °F 78% 30.05 in 7.0 mi NE 8.1 mph - N/A   Scattered Clouds
12:57 PM 82.4 °F 88.4 °F 73.9 °F 75% 30.03 in 10.0 mi ENE 9.2 mph - N/A   Scattered Clouds
1:57 PM 84.0 °F 90.2 °F 73.0 °F 69% 30.01 in 10.0 mi ENE 8.1 mph - N/A   Scattered Clouds
2:57 PM 81.7 °F 86.9 °F 73.0 °F 75% 30.00 in 10.0 mi East 6.9 mph - N/A   Scattered Clouds
3:57 PM 83.1 °F 87.8 °F 71.1 °F 67% 29.99 in 10.0 mi ESE 6.9 mph - N/A   Scattered Clouds
4:57 PM 81.7 °F 86.3 °F 72.0 °F 72% 29.99 in 10.0 mi East 6.9 mph - N/A   Scattered Clouds
5:57 PM 80.1 °F 83.8 °F 72.0 °F 76% 29.99 in 10.0 mi East 5.8 mph - N/A   Scattered Clouds
6:57 PM 79.0 °F - 71.1 °F 77% 30.01 in 10.0 mi East 4.6 mph - N/A   Scattered Clouds
7:57 PM 78.1 °F - 71.1 °F 79% 30.02 in 10.0 mi ENE 5.8 mph - N/A   Scattered Clouds
8:57 PM 78.1 °F - 70.0 °F 76% 30.04 in 10.0 mi East 4.6 mph - N/A   Partly Cloudy
9:57 PM 77.7 °F - 70.0 °F 77% 30.07 in 10.0 mi East 3.5 mph - N/A   Partly Cloudy
10:50 PM 77.0 °F - 71.6 °F 83% 30.09 in 6.2 mi Variable 4.6 mph - N/A   Mostly Cloudy
10:57 PM 77.4 °F - 71.1 °F 81% 30.08 in 10.0 mi East 3.5 mph - N/A   Mostly Cloudy
11:57 PM 77.0 °F - 71.1 °F 82% 30.06 in - ENE 6.9 mph - N/A   Clear